This demonstration page uses our WeatherBlox Daily Observations layout. Learn more.

41.55636, -103.73856

Hourly Observations for March 18, 2019

Temp ( °F °C ) Dew Point ( °F °C ) Humidity (%) Winds ( mph kmh ) Pressure ( in mb ) Visibility ( mi km ) Precip ( " mm )
12:53 am 00:53 Clear 30 -1.1 27 -2.8 88 88 E 7 11 30.42 1030 10 16.09344 0 0
1:53 am 01:53 Mostly Cloudy 30 -1.1 27 -2.8 88 88 ESE 7 11 30.39 1029 10 16.09344 0 0
2:53 am 02:53 Mostly Clear 29 -1.7 27 -2.8 92 92 ESE 6 9 30.39 1029 10 16.09344 0 0
3:53 am 03:53 Clear 27 -2.8 26 -3.3 96 96 ESE 7 11 30.39 1029 10 16.09344 0 0
4:53 am 04:53 Clear 27 -2.8 26 -3.3 96 96 E 6 9 30.36 1028 10 16.09344 0 0
5:53 am 05:53 Mostly Clear 28 -2.2 26 -3.3 92 92 ESE 8 13 30.36 1028 10 16.09344 0 0
6:53 am 06:53 Clear 27 -2.8 26 -3.3 96 96 E 7 11 30.39 1029 10 16.09344 0 0
7:53 am 07:53 Sunny 28 -2.2 27 -2.8 96 96 ESE 8 13 30.39 1029 10 16.09344 0 0
8:53 am 08:53 Mostly Cloudy 30 -1.1 29 -1.7 96 96 ESE 10 17 30.36 1028 10 16.09344 0 0
9:53 am 09:53 Sunny 33 0.6 30 -1.1 89 89 ESE 10 17 30.36 1028 10 16.09344 0 0
10:53 am 10:53 Sunny 35 1.7 30 -1.1 82 82 E 9 15 30.33 1027 10 16.09344 0 0
11:53 am 11:53 Sunny 37 2.8 32 0 82 82 E 9 15 30.3 1026 10 16.09344 0 0
12:53 pm 12:53 Sunny 41 5 33 0.6 73 73 E 8 13 30.27 1025 10 16.09344 0 0
1:53 pm 13:53 Sunny 44 6.7 31 -0.6 60 60 S 13 20 30.24 1024 10 16.09344 0 0
2:53 pm 14:53 Sunny 44 6.7 31 -0.6 60 60 S 8 13 30.21 1023 10 16.09344 0 0
3:53 pm 15:53 Mostly Sunny 45 7.2 33 0.6 63 63 ESE 7 11 30.18 1022 10 16.09344 0 0
4:53 pm 16:53 Sunny 45 7.2 34 1.1 66 66 E 7 11 30.18 1022 10 16.09344 0 0
5:53 pm 17:53 Sunny 45 7.2 35 1.7 68 68 N 6 9 30.18 1022 10 16.09344 0 0
6:53 pm 18:53 Sunny 40 4.4 33 0.6 77 77 NNW 6 9 30.21 1023 10 16.09344 0 0
7:53 pm 19:53 Clear 37 2.8 33 0.6 86 86 NE 5 7 30.24 1024 10 16.09344 0 0
8:53 pm 20:53 Clear 36 2.2 32 0 86 86 S 3 6 30.24 1024 10 16.09344 0 0
9:53 pm 21:53 Clear 33 0.6 31 -0.6 92 92 NNE 3 6 30.24 1024 10 16.09344 0 0
10:53 pm 22:53 Clear 32 0 31 -0.6 96 96 NNE 3 6 30.24 1024 10 16.09344 0 0
11:53 pm 23:53 Clear 29 -1.7 28 -2.2 96 96 NNW 3 6 30.24 1024 10 16.09344 0 0

Powered by AerisWeather